User: anonymous   Login
Location: Unspecified
(0.0000°N, 0.0000°E)
Time: 08:35:13
(UTC+00:00)
Language:

UNAMSat - Orbit

View from above orbital plane
View from above orbital plane
View from above satellite
View from above satellite

Ground track
Ground track

The orbit data is extracted from the following two-line orbital elements,

1 24305U 96052B   17293.44024852  .00000025  00000-0  10577-4 0  9998
2 24305  82.9347 259.8748 0031409  55.6944 304.7177 13.73789685 59046
Epoch (UTC): 20 October 2017 10:33:57
Eccentricity: 0.0031409
inclination: 82.9347°
perigee height: 963 km
apogee height: 1009 km
right ascension of ascending node: 259.8748°
argument of perigee: 55.6944°
revolutions per day: 13.73789685
mean anomaly at epoch: 304.7177°
orbit number at epoch: 5904

The dashed part of the orbit path shows where the satellite is in the earth's shadow,  

DLR